,,Stat5,,Stat1,,Stat2,,Stat3,,Stat4,,Wind1,,Wind1,
time,status,PA1M_AVG,status,PR1M_SUM,status,RH1M_AVG,status,SR1M_AVG,status,TA1M_AVG,status,W1dAve1m,status,W1sAve1m,
2001-10-06, 00:00:01,VALID,918.992,VALID,0,VALID,90.9286,VALID,0.101885,VALID,19.3208,VALID,32,VALID,0.0170272,
2001-10-06, 00:01:00,VALID,918.995,VALID,0,VALID,90.5637,VALID,0.101885,VALID,19.3377,VALID,32,VALID,0,
2001-10-06, 00:02:00,VALID,918.992,VALID,0,VALID,90.5662,VALID,0.0169808,VALID,19.3414,VALID,32,VALID,0,
2001-10-06, 00:03:00,VALID,918.977,VALID,0,VALID,90.9884,VALID,0,VALID,19.364,VALID,32,VALID,0,
2001-10-06, 00:04:00,VALID,918.972,VALID,0,VALID,91.5886,VALID,-0.0169808,VALID,19.4102,VALID,27,VALID,0.0169271,
2001-10-06, 00:05:00,VALID,918.971,VALID,0,VALID,91.6649,VALID,0,VALID,19.3936,VALID,354,VALID,0.144942,
2001-10-06, 00:06:00,VALID,918.944,VALID,0,VALID,91.909,VALID,-0.0169808,VALID,19.3712,VALID,26,VALID,0.353885,
2001-10-06, 00:07:00,VALID,918.934,VALID,0,VALID,91.9523,VALID,-0.0169808,VALID,19.3283,VALID,15,VALID,0,
2001-10-06, 00:08:00,VALID,918.93,VALID,0,VALID,91.4805,VALID,0,VALID,19.3161,VALID,8,VALID,0,
2001-10-06, 00:09:00,VALID,918.913,VALID,0,VALID,91.4068,VALID,0,VALID,19.3027,VALID,13,VALID,0.142948,
2001-10-06, 00:10:00,VALID,918.895,VALID,0,VALID,91.2999,VALID,-0.0169808,VALID,19.3128,VALID,18,VALID,0.356086,
2001-10-06, 00:11:00,VALID,918.88,VALID,0,VALID,91.497,VALID,0,VALID,19.3031,VALID,18,VALID,0.168285,
2001-10-06, 00:12:00,VALID,918.865,VALID,0,VALID,91.7196,VALID,-0.0169808,VALID,19.29,VALID,18,VALID,0,
2001-10-06, 00:13:00,VALID,918.856,VALID,0,VALID,91.3851,VALID,0,VALID,19.2803,VALID,18,VALID,0,
2001-10-06, 00:14:00,VALID,918.854,VALID,0,VALID,91.2135,VALID,0,VALID,19.2843,VALID,18,VALID,0,
2001-10-06, 00:15:00,VALID,918.838,VALID,0,VALID,91.4144,VALID,0,VALID,19.2937,VALID,18,VALID,0,
2001-10-06, 00:16:00,VALID,918.843,VALID,0,VALID,91.4182,VALID,0,VALID,19.287,VALID,18,VALID,0,
2001-10-06, 00:17:00,VALID,918.822,VALID,0,VALID,91.5263,VALID,-0.0849042,VALID,19.2939,VALID,18,VALID,0,
2001-10-06, 00:18:00,VALID,918.789,VALID,0,VALID,91.3368,VALID,-0.101885,VALID,19.3046,VALID,18,VALID,0,
2001-10-06, 00:19:00,VALID,918.792,VALID,0,VALID,90.968,VALID,-0.101885,VALID,19.3078,VALID,18,VALID,0,
2001-10-06, 00:20:00,VALID,918.755,VALID,0,VALID,89.7893,VALID,-0.101885,VALID,19.2822,VALID,18,VALID,0,
2001-10-06, 00:21:00,VALID,918.744,VALID,0,VALID,89.0263,VALID,-0.101885,VALID,19.2755,VALID,18,VALID,0,
2001-10-06, 00:22:00,VALID,918.725,VALID,0,VALID,89.6316,VALID,-0.0849042,VALID,19.3116,VALID,41,VALID,0.306027,
2001-10-06, 00:23:00,VALID,918.7,VALID,0,VALID,89.9558,VALID,-0.101885,VALID,19.3332,VALID,42,VALID,0.409334,
2001-10-06, 00:24:00,VALID,918.69,VALID,0,VALID,89.7867,VALID,-0.0849042,VALID,19.3787,VALID,43,VALID,0.479096,
2001-10-06, 00:25:00,VALID,918.682,VALID,0,VALID,89.8401,VALID,-0.101885,VALID,19.3913,VALID,46,VALID,0.633018,
2001-10-06, 00:26:00,VALID,918.658,VALID,0,VALID,90.6934,VALID,-0.101885,VALID,19.4209,VALID,46,VALID,0.620566,
2001-10-06, 00:27:00,VALID,918.647,VALID,0,VALID,91.1308,VALID,-0.101885,VALID,19.3588,VALID,46,VALID,0.668527,
2001-10-06, 00:28:00,VALID,918.639,VALID,0,VALID,91.6751,VALID,-0.0849042,VALID,19.32,VALID,45,VALID,0.466747,
2001-10-06, 00:29:00,VALID,918.627,VALID,0,VALID,91.7882,VALID,-0.0849042,VALID,19.2912,VALID,45,VALID,0.294271,
2001-10-06, 00:30:00,VALID,918.607,VALID,0,VALID,92.1621,VALID,-0.0679233,VALID,19.2654,VALID,40,VALID,0.303998,
2001-10-06, 00:31:00,VALID,918.589,VALID,0,VALID,91.4462,VALID,-0.101885,VALID,19.2268,VALID,21,VALID,0.493454,
2001-10-06, 00:32:00,VALID,918.552,VALID,0,VALID,91.9268,VALID,-0.0169808,VALID,19.2323,VALID,40,VALID,0.184755,
2001-10-06, 00:33:00,VALID,918.542,VALID,0,VALID,91.7666,VALID,-0.0169808,VALID,19.2284,VALID,344,VALID,0.0546875,
2001-10-06, 00:34:00,VALID,918.52,VALID,0,VALID,91.1817,VALID,0,VALID,19.2351,VALID,359,VALID,0,
2001-10-06, 00:35:00,VALID,918.496,VALID,0,VALID,90.3946,VALID,0,VALID,19.2351,VALID,9,VALID,0,
2001-10-06, 00:36:00,VALID,918.503,VALID,0,VALID,90.7264,VALID,0,VALID,19.3002,VALID,9,VALID,0,
2001-10-06, 00:37:00,VALID,918.482,VALID,0,VALID,90.7798,VALID,0,VALID,19.3223,VALID,239,VALID,0.228125,
2001-10-06, 00:38:00,VALID,918.47,VALID,0,VALID,90.921,VALID,0,VALID,19.3449,VALID,172,VALID,0.347451,
2001-10-06, 00:39:00,VALID,918.472,VALID,0,VALID,91.5365,VALID,0.0169808,VALID,19.3705,VALID,172,VALID,0.305743,
2001-10-06, 00:40:00,VALID,918.466,VALID,0,VALID,91.6763,VALID,0,VALID,19.377,VALID,172,VALID,0.0534539,
2001-10-06, 00:41:00,VALID,918.465,VALID,0,VALID,91.3737,VALID,0,VALID,19.377,VALID,172,VALID,0,
2001-10-06, 00:42:00,VALID,918.453,VALID,0,VALID,91.3228,VALID,0,VALID,19.3839,VALID,168,VALID,0.0245536,
2001-10-06, 00:43:00,VALID,918.428,VALID,0,VALID,91.7183,VALID,0.0169808,VALID,19.4065,VALID,163,VALID,0.0304487,
2001-10-06, 00:44:00,VALID,918.404,VALID,0,VALID,91.7323,VALID,0,VALID,19.3966,VALID,163,VALID,0,
2001-10-06, 00:45:00,VALID,918.382,VALID,0,VALID,91.0176,VALID,0,VALID,19.3643,VALID,163,VALID,0,
2001-10-06, 00:46:00,VALID,918.357,VALID,0,VALID,90.2992,VALID,0,VALID,19.3417,VALID,140,VALID,0,
2001-10-06, 00:47:00,VALID,918.339,VALID,0,VALID,90.4747,VALID,0,VALID,19.3449,VALID,128,VALID,0,
2001-10-06, 00:48:00,VALID,918.334,VALID,0,VALID,90.9426,VALID,0.0169808,VALID,19.3543,VALID,123,VALID,0.0496199,
2001-10-06, 00:49:00,VALID,918.311,VALID,0,VALID,91.7628,VALID,0,VALID,19.3608,VALID,59,VALID,0.296441,
2001-10-06, 00:50:00,VALID,918.311,VALID,0,VALID,92.2333,VALID,0,VALID,19.325,VALID,57,VALID,0.232171,
2001-10-06, 00:51:00,VALID,918.301,VALID,0,VALID,91.4169,VALID,-0.0169808,VALID,19.2768,VALID,57,VALID,0.159417,
2001-10-06, 00:52:00,VALID,918.297,VALID,0,VALID,91.1423,VALID,0,VALID,19.2413,VALID,57,VALID,0,
2001-10-06, 00:53:00,VALID,918.299,VALID,0,VALID,91.7399,VALID,0,VALID,19.2609,VALID,49,VALID,0.101563,
2001-10-06, 00:54:00,VALID,918.3,VALID,0,VALID,91.4729,VALID,0,VALID,19.2512,VALID,12,VALID,0.578336,
2001-10-06, 00:55:01,VALID,918.31,VALID,0,VALID,90.8155,VALID,0,VALID,19.2055,VALID,8,VALID,0.372327,
2001-10-06, 00:56:00,VALID,918.301,VALID,0,VALID,90.2,VALID,0.0169808,VALID,19.2023,VALID,358,VALID,0.347762,
2001-10-06, 00:57:00,VALID,918.292,VALID,0,VALID,88.613,VALID,0,VALID,19.1986,VALID,340,VALID,0.190848,
2001-10-06, 00:58:00,VALID,918.285,VALID,0,VALID,89.0721,VALID,0,VALID,19.2639,VALID,9,VALID,0.109375,
2001-10-06, 00:59:00,VALID,918.283,VALID,0,VALID,89.5439,VALID,0.0339617,VALID,19.3096,VALID,10,VALID,0,
2001-10-06, 01:00:00,VALID,918.27,VALID,0,VALID,90.1021,VALID,0.0169808,VALID,19.329,VALID,9,VALID,0,
2001-10-06, 01:01:00,VALID,918.255,VALID,0,VALID,90.3806,VALID,0,VALID,19.3414,VALID,9,VALID,0,
2001-10-06, 01:02:00,VALID,918.234,VALID,0,VALID,90.4441,VALID,0,VALID,19.3382,VALID,9,VALID,0,
2001-10-06, 01:03:00,VALID,918.228,VALID,0,VALID,90.9617,VALID,0,VALID,19.3541,VALID,9,VALID,0,
2001-10-06, 01:04:00,VALID,918.214,VALID,0,VALID,90.7786,VALID,0.0509425,VALID,19.3312,VALID,9,VALID,0,
2001-10-06, 01:05:00,VALID,918.191,VALID,0,VALID,90.9439,VALID,0.0169808,VALID,19.3089,VALID,9,VALID,0,
2001-10-06, 01:06:00,VALID,918.174,VALID,0,VALID,91.2834,VALID,0.0169808,VALID,19.3027,VALID,9,VALID,0,
2001-10-06, 01:07:00,VALID,918.184,VALID,0,VALID,91.2796,VALID,0.0169808,VALID,19.2766,VALID,294,VALID,0,
2001-10-06, 01:08:01,VALID,918.212,VALID,0,VALID,91.8912,VALID,0.0339617,VALID,19.2574,VALID,206,VALID,0,
2001-10-06, 01:09:00,VALID,918.207,VALID,0,VALID,92.2969,VALID,0.0169808,VALID,19.2641,VALID,206,VALID,0,
2001-10-06, 01:10:01,VALID,918.198,VALID,0,VALID,92.4635,VALID,0.0339617,VALID,19.2505,VALID,163,VALID,0,
2001-10-06, 01:11:00,VALID,918.17,VALID,0,VALID,92.4813,VALID,0,VALID,19.2318,VALID,120,VALID,0,
2001-10-06, 01:12:00,VALID,918.142,VALID,0,VALID,92.7445,VALID,0.0169808,VALID,19.1963,VALID,120,VALID,0,
2001-10-06, 01:13:01,VALID,918.109,VALID,0,VALID,93.1425,VALID,0,VALID,19.1901,VALID,73,VALID,0,
2001-10-06, 01:14:00,VALID,918.066,VALID,0,VALID,93.2798,VALID,0.0169808,VALID,19.167,VALID,65,VALID,0,
2001-10-06, 01:15:00,VALID,918.04,VALID,0,VALID,93.2913,VALID,0,VALID,19.1573,VALID,65,VALID,0,
2001-10-06, 01:16:00,VALID,918.026,VALID,0,VALID,93.1794,VALID,0.0169808,VALID,19.1372,VALID,54,VALID,0,
2001-10-06, 01:17:00,VALID,918.004,VALID,0,VALID,93.2925,VALID,-0.0339617,VALID,19.1198,VALID,35,VALID,0,
2001-10-06, 01:18:00,VALID,917.983,VALID,0,VALID,93.3917,VALID,-0.101885,VALID,19.1041,VALID,31,VALID,0,
2001-10-06, 01:19:00,VALID,917.966,VALID,0,VALID,93.1934,VALID,-0.101885,VALID,19.0651,VALID,25,VALID,0,
2001-10-06, 01:20:00,VALID,917.958,VALID,0,VALID,92.9759,VALID,-0.0679233,VALID,19.0425,VALID,28,VALID,0,
2001-10-06, 01:21:00,VALID,917.93,VALID,0,VALID,92.906,VALID,-0.118866,VALID,19.0489,VALID,36,VALID,0.411318,
2001-10-06, 01:22:00,VALID,917.913,VALID,0,VALID,92.5258,VALID,-0.0679233,VALID,19.0489,VALID,23,VALID,0.590848,
2001-10-06, 01:23:01,VALID,917.927,VALID,0,VALID,92.26,VALID,-0.101885,VALID,19.0489,VALID,4,VALID,0.226768,
2001-10-06, 01:24:00,VALID,917.932,VALID,0,VALID,92.4507,VALID,-0.0849042,VALID,19.0649,VALID,353,VALID,0.26478,
2001-10-06, 01:25:01,VALID,917.924,VALID,0,VALID,92.2676,VALID,-0.0849042,VALID,19.0554,VALID,354,VALID,0.300576,
2001-10-06, 01:26:00,VALID,917.909,VALID,0,VALID,92.0171,VALID,-0.101885,VALID,19.0591,VALID,356,VALID,0.452703,
2001-10-06, 01:27:00,VALID,917.882,VALID,0,VALID,91.7717,VALID,-0.101885,VALID,19.0783,VALID,3,VALID,0.303571,
2001-10-06, 01:28:01,VALID,917.849,VALID,0,VALID,91.4246,VALID,-0.0849042,VALID,19.0611,VALID,7,VALID,0.105569,
2001-10-06, 01:29:00,VALID,917.801,VALID,0,VALID,91.492,VALID,-0.0849042,VALID,19.1168,VALID,45,VALID,0.749053,
2001-10-06, 01:30:00,VALID,917.756,VALID,0,VALID,91.0647,VALID,-0.101885,VALID,19.1394,VALID,30,VALID,0.955423,
2001-10-06, 01:31:00,VALID,917.729,VALID,0,VALID,90.9413,VALID,-0.101885,VALID,19.1396,VALID,32,VALID,0.553632,
2001-10-06, 01:32:00,VALID,917.703,VALID,0,VALID,90.6323,VALID,-0.0169808,VALID,19.1382,VALID,20,VALID,0.341005,
2001-10-06, 01:33:00,VALID,917.68,VALID,0,VALID,90.42,VALID,0.0339617,VALID,19.1412,VALID,18,VALID,0.188556,
2001-10-06, 01:34:00,VALID,917.681,VALID,0,VALID,90.0919,VALID,0.0169808,VALID,19.1349,VALID,339,VALID,0.426866,
2001-10-06, 01:35:00,VALID,917.668,VALID,0,VALID,89.2768,VALID,0.0169808,VALID,19.1442,VALID,342,VALID,0.52524,
2001-10-06, 01:36:00,VALID,917.646,VALID,0,VALID,88.4948,VALID,0,VALID,19.1958,VALID,353,VALID,0.451225,
2001-10-06, 01:37:00,VALID,917.64,VALID,0,VALID,88.7783,VALID,0.0509425,VALID,19.2415,VALID,13,VALID,0.667857,
2001-10-06, 01:38:01,VALID,917.632,VALID,0,VALID,88.3053,VALID,0.0169808,VALID,19.244,VALID,10,VALID,0.615543,
2001-10-06, 01:39:00,VALID,917.623,VALID,0,VALID,88.8724,VALID,0.0169808,VALID,19.2674,VALID,11,VALID,0.191512,
2001-10-06, 01:40:01,VALID,917.622,VALID,0,VALID,89.437,VALID,0.0169808,VALID,19.2997,VALID,15,VALID,0.382196,
2001-10-06, 01:41:00,VALID,917.593,VALID,0,VALID,88.5851,VALID,0,VALID,19.2706,VALID,22,VALID,0.432432,
2001-10-06, 01:42:00,VALID,917.556,VALID,0,VALID,88.1985,VALID,0,VALID,19.2445,VALID,16,VALID,0.546205,
2001-10-06, 01:43:01,VALID,917.553,VALID,0,VALID,88.5901,VALID,0,VALID,19.251,VALID,9,VALID,0.365385,
2001-10-06, 01:44:00,VALID,917.537,VALID,0,VALID,89.5311,VALID,0,VALID,19.2644,VALID,9,VALID,0.45928,
2001-10-06, 01:45:00,VALID,917.524,VALID,0,VALID,89.1903,VALID,0,VALID,19.2515,VALID,9,VALID,0.475873,
2001-10-06, 01:46:00,VALID,917.48,VALID,0,VALID,88.6156,VALID,0.0169808,VALID,19.2187,VALID,12,VALID,0.468539,
2001-10-06, 01:47:00,VALID,917.465,VALID,0,VALID,87.7293,VALID,-0.0679233,VALID,19.2365,VALID,13,VALID,0.15266,
2001-10-06, 01:48:00,VALID,917.447,VALID,0,VALID,87.274,VALID,-0.101885,VALID,19.2557,VALID,13,VALID,0.0304054,
2001-10-06, 01:49:00,VALID,917.448,VALID,0,VALID,86.8926,VALID,-0.0679233,VALID,19.2885,VALID,13,VALID,0.0794271,
2001-10-06, 01:50:00,VALID,917.422,VALID,0,VALID,86.5607,VALID,-0.101885,VALID,19.3237,VALID,13,VALID,0.240986,
2001-10-06, 01:51:00,VALID,917.413,VALID,0,VALID,86.7603,VALID,-0.101885,VALID,19.3752,VALID,14,VALID,0.239654,
2001-10-06, 01:52:00,VALID,917.408,VALID,0,VALID,86.8989,VALID,-0.0679233,VALID,19.4075,VALID,16,VALID,0.102232,
2001-10-06, 01:53:01,VALID,917.419,VALID,0,VALID,86.7628,VALID,-0.0849042,VALID,19.4333,VALID,16,VALID,0,
2001-10-06, 01:54:00,VALID,917.428,VALID,0,VALID,87.0591,VALID,-0.118866,VALID,19.4592,VALID,16,VALID,0.00105574,
2001-10-06, 01:55:01,VALID,917.423,VALID,0,VALID,87.2995,VALID,-0.101885,VALID,19.4786,VALID,16,VALID,0,
2001-10-06, 01:56:00,VALID,917.41,VALID,0,VALID,88.711,VALID,-0.0679233,VALID,19.5039,VALID,16,VALID,0,
2001-10-06, 01:57:00,VALID,917.4,VALID,0,VALID,87.5423,VALID,-0.0339617,VALID,19.4945,VALID,16,VALID,0,
2001-10-06, 01:58:01,VALID,917.402,VALID,0,VALID,88.2405,VALID,-0.101885,VALID,19.4853,VALID,16,VALID,0,
2001-10-06, 01:59:00,VALID,917.398,VALID,0,VALID,88.7008,VALID,-0.101885,VALID,19.4748,VALID,16,VALID,0,
2001-10-06, 02:00:00,VALID,917.393,VALID,0,VALID,88.0294,VALID,-0.0339617,VALID,19.4557,VALID,16,VALID,0,
2001-10-06, 02:01:00,VALID,917.392,VALID,0,VALID,87.6123,VALID,-0.0679233,VALID,19.4008,VALID,16,VALID,0,
2001-10-06, 02:02:00,VALID,917.393,VALID,0,VALID,88.0128,VALID,-0.0509425,VALID,19.3851,VALID,16,VALID,0,
2001-10-06, 02:03:00,VALID,917.381,VALID,0,VALID,88.112,VALID,-0.0849042,VALID,19.3464,VALID,16,VALID,0,
2001-10-06, 02:04:00,VALID,917.357,VALID,0,VALID,88.2379,VALID,-0.0679233,VALID,19.3141,VALID,20,VALID,0,
2001-10-06, 02:05:00,VALID,917.367,VALID,0,VALID,88.215,VALID,-0.101885,VALID,19.2783,VALID,21,VALID,0,
2001-10-06, 02:06:00,VALID,917.369,VALID,0,VALID,88.8839,VALID,-0.0849042,VALID,19.275,VALID,34,VALID,0,
2001-10-06, 02:07:00,VALID,917.37,VALID,0,VALID,89.7346,VALID,-0.101885,VALID,19.2882,VALID,89,VALID,0.174554,
2001-10-06, 02:08:01,VALID,917.365,VALID,0,VALID,90.4187,VALID,-0.101885,VALID,19.2721,VALID,129,VALID,0.302426,
2001-10-06, 02:09:00,VALID,917.356,VALID,0,VALID,91.3254,VALID,-0.0849042,VALID,19.2658,VALID,142,VALID,0.581503,
2001-10-06, 02:10:01,VALID,917.336,VALID,0,VALID,91.9459,VALID,-0.0679233,VALID,19.236,VALID,131,VALID,0.470189,
2001-10-06, 02:11:00,VALID,917.324,VALID,0,VALID,92.5321,VALID,-0.101885,VALID,19.2234,VALID,122,VALID,0.440245,
2001-10-06, 02:12:00,VALID,917.306,VALID,0,VALID,93.0255,VALID,-0.0679233,VALID,19.1908,VALID,112,VALID,0.680134,
2001-10-06, 02:13:01,VALID,917.306,VALID,0,VALID,93.2353,VALID,-0.0849042,VALID,19.1394,VALID,104,VALID,0.818109,
2001-10-06, 02:14:00,VALID,917.293,VALID,0,VALID,93.5367,VALID,-0.101885,VALID,19.0748,VALID,112,VALID,0.861506,
2001-10-06, 02:15:00,VALID,917.284,VALID,0,VALID,93.7618,VALID,-0.0849042,VALID,19.0326,VALID,118,VALID,0.571921,
2001-10-06, 02:16:00,VALID,917.287,VALID,0,VALID,93.9614,VALID,-0.101885,VALID,19.0166,VALID,113,VALID,0.489654,
2001-10-06, 02:17:00,VALID,917.292,VALID,0,VALID,94.0135,VALID,0.0339617,VALID,19.003,VALID,108,VALID,0.44299,
2001-10-06, 02:18:00,VALID,917.276,VALID,0,VALID,93.9614,VALID,0,VALID,18.9829,VALID,97,VALID,0.622677,
2001-10-06, 02:19:01,VALID,917.274,VALID,0,VALID,93.6104,VALID,0.0509425,VALID,18.9382,VALID,104,VALID,0.820095,
2001-10-06, 02:20:01,VALID,917.27,VALID,0,VALID,93.2518,VALID,0.0169808,VALID,18.8959,VALID,108,VALID,0.901042,
2001-10-06, 02:21:01,VALID,917.275,VALID,0,VALID,92.9111,VALID,0.0339617,VALID,18.8895,VALID,123,VALID,0.717105,
2001-10-06, 02:22:00,VALID,917.269,VALID,0,VALID,92.9937,VALID,0.0169808,VALID,18.9086,VALID,117,VALID,0.574107,
2001-10-06, 02:23:01,VALID,917.295,VALID,0,VALID,93.084,VALID,0.0169808,VALID,18.9377,VALID,104,VALID,0.552632,
2001-10-06, 02:24:00,VALID,917.315,VALID,0,VALID,93.3078,VALID,0,VALID,18.9347,VALID,104,VALID,0.842905,
2001-10-06, 02:25:01,VALID,917.319,VALID,0,VALID,93.7007,VALID,0.0169808,VALID,18.8959,VALID,108,VALID,0.969572,
2001-10-06, 02:26:01,VALID,917.336,VALID,0,VALID,93.8355,VALID,0.0169808,VALID,18.8736,VALID,123,VALID,1.0663,
2001-10-06, 02:27:00,VALID,917.332,VALID,0,VALID,93.8508,VALID,0,VALID,18.8346,VALID,118,VALID,0.834821,
2001-10-06, 02:28:01,VALID,917.361,VALID,0,VALID,93.7656,VALID,0.0169808,VALID,18.8219,VALID,121,VALID,0.645633,
2001-10-06, 02:29:00,VALID,917.377,VALID,0,VALID,93.9995,VALID,0,VALID,18.8346,VALID,126,VALID,0.39536,
2001-10-06, 02:30:00,VALID,917.374,VALID,0,VALID,94.1788,VALID,0,VALID,18.8477,VALID,117,VALID,0.653952,
2001-10-06, 02:31:00,VALID,917.359,VALID,0,VALID,94.395,VALID,0,VALID,18.8477,VALID,131,VALID,0.556588,
2001-10-06, 02:32:01,VALID,917.357,VALID,0,VALID,94.7651,VALID,0.0169808,VALID,18.8507,VALID,136,VALID,0.552998,
2001-10-06, 02:33:01,VALID,917.363,VALID,0,VALID,94.9863,VALID,0.0169808,VALID,18.857,VALID,141,VALID,0.482897,
2001-10-06, 02:34:01,VALID,917.36,VALID,0,VALID,95.2737,VALID,0.0169808,VALID,18.8567,VALID,146,VALID,0.757161,
2001-10-06, 02:35:01,VALID,917.362,VALID,0,VALID,95.6628,VALID,0.0679233,VALID,18.8607,VALID,143,VALID,1.27524,
2001-10-06, 02:36:01,VALID,917.358,VALID,0,VALID,95.9349,VALID,0,VALID,18.8413,VALID,135,VALID,1.0378,
2001-10-06, 02:37:01,VALID,917.35,VALID,0,VALID,96.1257,VALID,0.0339617,VALID,18.8122,VALID,137,VALID,0.852455,
2001-10-06, 02:38:01,VALID,917.351,VALID,0,VALID,96.2261,VALID,0,VALID,18.7767,VALID,135,VALID,0.629729,
2001-10-06, 02:39:01,VALID,917.329,VALID,0,VALID,96.2388,VALID,0,VALID,18.7474,VALID,153,VALID,0.448057,
2001-10-06, 02:40:01,VALID,917.326,VALID,0,VALID,96.0939,VALID,0.0169808,VALID,18.7253,VALID,148,VALID,0.659334,
2001-10-06, 02:41:01,VALID,917.303,VALID,0,VALID,95.912,VALID,0,VALID,18.7056,VALID,136,VALID,0.701014,
2001-10-06, 02:42:01,VALID,917.281,VALID,0,VALID,95.7645,VALID,0.0169808,VALID,18.7153,VALID,145,VALID,0.758929,
2001-10-06, 02:43:01,VALID,917.277,VALID,0,VALID,95.4543,VALID,0,VALID,18.7183,VALID,143,VALID,0.720553,
2001-10-06, 02:44:01,VALID,917.265,VALID,0,VALID,95.158,VALID,0,VALID,18.7511,VALID,138,VALID,0.58357,
2001-10-06, 02:45:01,VALID,917.274,VALID,0,VALID,94.8299,VALID,0.0339617,VALID,18.7732,VALID,129,VALID,0.494715,
2001-10-06, 02:46:01,VALID,917.273,VALID,0,VALID,94.5565,VALID,0.0339617,VALID,18.7891,VALID,120,VALID,0.603252,
2001-10-06, 02:47:01,VALID,917.27,VALID,0,VALID,94.0797,VALID,0.0169808,VALID,18.8286,VALID,115,VALID,0.741343,
2001-10-06, 02:48:01,VALID,917.272,VALID,0,VALID,93.852,VALID,-0.0169808,VALID,18.8572,VALID,117,VALID,0.556166,
2001-10-06, 02:49:01,VALID,917.281,VALID,0,VALID,93.6193,VALID,-0.0169808,VALID,18.9064,VALID,115,VALID,0.45204,
2001-10-06, 02:50:01,VALID,917.279,VALID,0,VALID,93.6244,VALID,-0.0169808,VALID,18.965,VALID,100,VALID,0.566907,
2001-10-06, 02:51:01,VALID,917.285,VALID,0,VALID,93.7414,VALID,0,VALID,18.997,VALID,96,VALID,0.555743,
2001-10-06, 02:52:01,VALID,917.27,VALID,0,VALID,93.7147,VALID,0,VALID,19.006,VALID,85,VALID,0.536384,
2001-10-06, 02:53:01,VALID,917.266,VALID,0,VALID,93.3027,VALID,0,VALID,19.0032,VALID,96,VALID,0.665296,
2001-10-06, 02:54:01,VALID,917.262,VALID,0,VALID,92.9874,VALID,-0.0339617,VALID,18.961,VALID,98,VALID,0.603252,
2001-10-06, 02:55:00,VALID,917.254,VALID,0,VALID,92.8666,VALID,-0.0339617,VALID,18.9479,VALID,100,VALID,0.540913,
2001-10-06, 02:56:00,VALID,917.263,VALID,0,VALID,92.1303,VALID,-0.0169808,VALID,18.9352,VALID,113,VALID,0.575802,
2001-10-06, 02:57:00,VALID,917.251,VALID,0,VALID,92.1697,VALID,0,VALID,18.9548,VALID,119,VALID,0.648438,
2001-10-06, 02:58:00,VALID,917.246,VALID,0,VALID,92.6326,VALID,0,VALID,18.9767,VALID,124,VALID,0.447716,
2001-10-06, 02:59:00,VALID,917.246,VALID,0,VALID,92.2943,VALID,0,VALID,19.0129,VALID,135,VALID,0.556108,
2001-10-06, 03:00:00,VALID,917.217,VALID,0,VALID,91.8518,VALID,-0.0339617,VALID,19.0062,VALID,135,VALID,0.642923,
2001-10-06, 03:01:00,VALID,917.219,VALID,0,VALID,91.5949,VALID,0,VALID,19.0028,VALID,133,VALID,0.550887,
2001-10-06, 03:02:00,VALID,917.212,VALID,0,VALID,91.731,VALID,-0.0169808,VALID,19.0256,VALID,133,VALID,0.441934,
2001-10-06, 03:03:00,VALID,917.215,VALID,0,VALID,91.9853,VALID,0,VALID,19.048,VALID,133,VALID,0.417019,
2001-10-06, 03:04:00,VALID,917.222,VALID,0,VALID,92.2486,VALID,0,VALID,19.0671,VALID,132,VALID,0.270399,
2001-10-06, 03:05:00,VALID,917.224,VALID,0,VALID,92.5372,VALID,-0.0169808,VALID,19.0741,VALID,130,VALID,0.246394,
2001-10-06, 03:06:00,VALID,917.236,VALID,0,VALID,92.7928,VALID,0,VALID,19.0969,VALID,127,VALID,0.23353,
2001-10-06, 03:07:00,VALID,917.235,VALID,0,VALID,93.3256,VALID,0,VALID,19.0932,VALID,116,VALID,0.154464,
2001-10-06, 03:08:00,VALID,917.227,VALID,0,VALID,93.4706,VALID,-0.0169808,VALID,19.0964,VALID,110,VALID,0.439967,
2001-10-06, 03:09:00,VALID,917.244,VALID,0,VALID,93.3943,VALID,-0.0339617,VALID,19.0582,VALID,110,VALID,0.350084,
2001-10-06, 03:10:00,VALID,917.236,VALID,0,VALID,93.2455,VALID,-0.0169808,VALID,19.0028,VALID,110,VALID,0.407072,
2001-10-06, 03:11:00,VALID,917.23,VALID,0,VALID,93.3752,VALID,-0.0169808,VALID,18.9576,VALID,98,VALID,0.555954,
2001-10-06, 03:12:00,VALID,917.236,VALID,0,VALID,93.3701,VALID,0,VALID,18.9382,VALID,99,VALID,0.670313,
2001-10-06, 03:13:00,VALID,917.235,VALID,0,VALID,93.3409,VALID,-0.0169808,VALID,18.9188,VALID,101,VALID,0.85016,
2001-10-06, 03:14:00,VALID,917.23,VALID,0,VALID,93.4909,VALID,-0.0339617,VALID,18.9197,VALID,103,VALID,0.885653,
2001-10-06, 03:15:00,VALID,917.233,VALID,0,VALID,93.4235,VALID,-0.0169808,VALID,18.8962,VALID,108,VALID,0.914522,
2001-10-06, 03:16:00,VALID,917.23,VALID,0,VALID,93.2557,VALID,-0.0339617,VALID,18.8736,VALID,111,VALID,1.06862,
2001-10-06, 03:17:00,VALID,917.239,VALID,0,VALID,93.1272,VALID,0,VALID,18.8812,VALID,109,VALID,1.12458,
2001-10-06, 03:18:00,VALID,917.236,VALID,0,VALID,93.3676,VALID,-0.0509425,VALID,18.8872,VALID,108,VALID,1.11296,
2001-10-06, 03:19:00,VALID,917.237,VALID,0,VALID,93.3142,VALID,-0.0339617,VALID,18.8937,VALID,114,VALID,1.3457,
2001-10-06, 03:20:00,VALID,917.223,VALID,0,VALID,93.1603,VALID,-0.0339617,VALID,18.9066,VALID,119,VALID,1.25601,
2001-10-06, 03:21:00,VALID,917.216,VALID,0,VALID,93.2658,VALID,-0.0169808,VALID,18.9287,VALID,120,VALID,1.106,
2001-10-06, 03:22:00,VALID,917.208,VALID,0,VALID,93.5329,VALID,-0.0169808,VALID,18.9575,VALID,120,VALID,0.847768,
2001-10-06, 03:23:00,VALID,917.203,VALID,0,VALID,93.7211,VALID,-0.0169808,VALID,18.9709,VALID,116,VALID,0.673725,
2001-10-06, 03:24:00,VALID,917.21,VALID,0,VALID,93.5609,VALID,0,VALID,18.9613,VALID,116,VALID,0.97234,
2001-10-06, 03:25:00,VALID,917.199,VALID,0,VALID,93.4133,VALID,-0.0169808,VALID,18.9523,VALID,115,VALID,0.860814,
2001-10-06, 03:26:00,VALID,917.193,VALID,0,VALID,93.5125,VALID,-0.0169808,VALID,18.9354,VALID,110,VALID,0.771326,
2001-10-06, 03:27:00,VALID,917.198,VALID,0,VALID,93.5519,VALID,-0.0169808,VALID,18.9282,VALID,112,VALID,0.855134,
2001-10-06, 03:28:00,VALID,917.2,VALID,0,VALID,93.4159,VALID,-0.0339617,VALID,18.9227,VALID,112,VALID,0.926683,
2001-10-06, 03:29:00,VALID,917.202,VALID,0,VALID,93.4426,VALID,-0.0169808,VALID,18.9096,VALID,108,VALID,0.858665,
2001-10-06, 03:30:00,VALID,917.22,VALID,0,VALID,93.0344,VALID,-0.0509425,VALID,18.9098,VALID,108,VALID,1.08042,
2001-10-06, 03:31:00,VALID,917.239,VALID,0,VALID,93.1311,VALID,-0.0339617,VALID,18.9223,VALID,109,VALID,0.954181,
2001-10-06, 03:32:00,VALID,917.239,VALID,0,VALID,93.379,VALID,-0.0509425,VALID,18.9647,VALID,100,VALID,0.710726,
2001-10-06, 03:33:00,VALID,917.261,VALID,0,VALID,93.29,VALID,-0.0169808,VALID,18.9714,VALID,100,VALID,0.700802,
2001-10-06, 03:34:00,VALID,917.271,VALID,0,VALID,93.4426,VALID,-0.0339617,VALID,18.9744,VALID,98,VALID,0.96875,
2001-10-06, 03:35:00,VALID,917.28,VALID,0,VALID,93.4757,VALID,-0.0339617,VALID,18.9776,VALID,97,VALID,0.967348,
2001-10-06, 03:36:00,VALID,917.286,VALID,0,VALID,93.4426,VALID,-0.0169808,VALID,18.9645,VALID,97,VALID,1.02829,
2001-10-06, 03:37:00,VALID,917.288,VALID,0,VALID,93.2277,VALID,0,VALID,18.9481,VALID,98,VALID,1.10379,